User: anonymous   Login
Location: Unspecified
(0.0000°N, 0.0000°E)
Time: 13:00:47
(UTC+00:00)
Language:

Tiangong 2 - Orbit

View from above orbital plane
View from above orbital plane
View from above satellite
View from above satellite

Ground track
Ground track

The orbit data is extracted from the following two-line orbital elements,

1 41765U 16057A   17290.06221101  .00008036  00000-0  10424-3 0  9995
2 41765  42.7837 350.8759 0003087 348.1020  85.0872 15.59206913 62008
Epoch (UTC): 17 October 2017 01:29:35
Eccentricity: 0.0003087
inclination: 42.7837°
perigee height: 388 km
apogee height: 392 km
right ascension of ascending node: 350.8759°
argument of perigee: 348.1020°
revolutions per day: 15.59206913
mean anomaly at epoch: 85.0872°
orbit number at epoch: 6200

The dashed part of the orbit path shows where the satellite is in the earth's shadow,  

DLR